Miscellaneous Local Product
Issued by NWS North Platte, NE

Home | Current Version | Previous Version | Text Only | Print | Product List | Glossary On
Versions: 1 2 3 4 5 6 7 8 9 10 11 12 13 14 15 16 17 18 19 20 21 22 23 24 25 26 27 28 29 30 31 32 33 34 35 36 37 38 39 40 41 42 43 44 45 46 47 48 49 50
000
AXUS43 KLBF 010610
MISLBF


WESTERN AND NORTH CENTRAL NEBRASKA HOURLY WEATHER ROUNDUP
NATIONAL WEATHER SERVICE NORTH PLATTE NE
1200 AM CST SUN FEB 01 2015

***STATIONS NOT REPORTING VARIABLES SUCH AS SKY/WEATHER OR
PRESSURE ARE PROVIDED BY THE NEBRASKA DEPARTMENT OF
ROADS...RAWS...AND APRS NETWORKS...AND ARE NOT UNDER
NATIONAL WEATHER SERVICE QUALITY CONTROL***

...OBSERVATIONS IN AND NEAR THE EASTERN PANHANDLE OF NEBRASKA...

CITY           SKY/WX    TMP DP  RH WIND       PRES   REMARKS
PINE RIDGE     LGT SNOW  15  11  83 N9        30.10R FOG     WCI   3
CHADRON        LGT SNOW  17  14  88 NE12      30.11R FOG     WCI   4
ALLIANCE       CLOUDY    18  15  88 N14       30.00R WCI   4
SIDNEY         CLOUDY    21  17  84 N15       29.97R WCI   8
WHITECLAY        N/A     14  11  87 E8          N/A  WCI   3
CRESCENT LAKE    N/A     16  13  86 N13G20      N/A  WCI   2
LISCO            N/A     23  17  77 NW12        N/A  WCI  12
LEWELLEN         N/A     17  14  86 SE7         N/A  WCI   8
$$

...OBSERVATIONS IN NORTH CENTRAL NEBRASKA...

CITY           SKY/WX    TMP DP  RH WIND       PRES   REMARKS
VALENTINE      LGT SNOW  12   8  84 N15       30.09R VSB 3/4 WCI  -4
THEDFORD       LGT SNOW  17  15  90 N15G24    30.01R WCI   2
AINSWORTH      LGT SNOW  15  12  90 N23       30.04R VSB 1   WCI  -4
O`NEILL        LGT SNOW  23  21  93 N24G30    29.99R WCI   7
ORD            LGT SNOW  23  19  85 N21G29    29.92R FOG     WCI   8
BROKEN BOW     LGT SNOW  21  17  84 N25G33    29.92R FOG     WCI   4
BROWNLEE         N/A     12   8  87 SW22        N/A  WCI  -7
VALENTINE NWR    N/A     14  11  88 N16G23      N/A  WCI  -2
SPRINGVIEW       N/A     15  12  89 N9G23       N/A  WCI   3
HALSEY           N/A     16  15  95 NW10G20     N/A  WCI   4
BREWSTER         N/A     22  20  94 E14         N/A  WCI   9
ROSE             N/A     24  24 100 NE18        N/A  WCI  10
NEWPORT          N/A     24  22  94 S18         N/A  WCI   9
SARGENT          N/A     21  19  93 N6G14       N/A  WCI  13
COMSTOCK         N/A     28  26  92 N17         N/A  WCI  16
CHAMBERS         N/A     22  20  90 N10         N/A  WCI  11
EWING            N/A     24  23  95 N6G13       N/A  WCI  17
$$

...OBSERVATIONS IN SOUTHWEST NEBRASKA AND FAR NORTHEAST COLORADO...

CITY           SKY/WX    TMP DP  RH WIND       PRES   REMARKS
WRAY           FLURRIES  26  24  92 N15       29.93R WCI  13
IMPERIAL       LGT SNOW  22  18  85 N25       29.94R FOG     WCI   5
OGALLALA       LGT SNOW  19  17  88 N21       29.98R WCI   3
NORTH PLATTE   CLOUDY    19  14  81 N23G32    29.95R HAZE    WCI   2
MCCOOK         LGT SNOW  25  21  85 N24G35    29.89R FOG     WCI   9
LEXINGTON      LGT SNOW  23  20  89 N22G30    29.90R WCI   8
BRADY            N/A     19  16  88 MISG        N/A
GOTHENBURG       N/A     21  18  89 N16         N/A  WCI   7
CALLAWAY         N/A     18  16  93 N17         N/A  WCI   3
$$

...NORTH PLATTE AREA...

CITY           SKY/WX    TMP DP  RH WIND       PRES   REMARKS
AIRPORT        CLOUDY    19  14  81 N23G32    29.95R HAZE    WCI   2
DOWNTOWN         N/A     18  16  90 N9          N/A  WCI   7
$$

...SOME WEATHER OBSERVATIONS FROM AROUND THE REGION...

CITY           SKY/WX    TMP DP  RH WIND       PRES   REMARKS
DENVER         LGT SNOW  30  29  96 N21G26    29.93R FOG     WCI  17
LARAMIE        FLURRIES  22  20  92 N10       29.93R WCI  11
CHEYENNE       MIX PCPN  25  20  81 N25G36    29.93R WCI   9
SCOTTSBLUFF    CLOUDY    24  21  88 N10       30.03R WCI  14
RAPID CITY     LGT SNOW  11   8  88 N14       30.17R FOG     WCI  -5
PIERRE         CLOUDY    11   0  61 NE14      30.24R WCI  -5
WINNER         LGT SNOW  12   7  80 N18       30.16R VSB 3/4 WCI  -6
SIOUX FALLS    LGT SNOW  23  20  88 NE21G30   30.05S VSB 1   WCI   8
OMAHA          LGT SNOW  33  32  96 CALM      29.87F VSB 3/4
GRAND ISLAND   LGT SNOW  30  28  92 N18       29.85R VSB 3/4 WCI  18
KANSAS CITY    LGT SNOW  33  33 100 SE10      29.85F FOG     WCI  25
WICHITA        LGT RAIN  41  41 100 S13       29.79F
HAYS           CLOUDY    34  25  69 N15       29.79R WCI  24
LIBERAL        CLOUDY    39  34  81 NW14      29.85R WCI  31
GOODLAND       CLOUDY    27  25  92 N26       29.87R WCI  12
$$



USA.gov is the U.S. government's official web portal to all federal, state and local government web resources and services.